Location: Unspecified
(0.0000°N, 0.0000°E)
Time: 03:36:01
(UTC+01:00)

OPAL - Visible Passes

Search period start: 23 February 2017 00:00
Search period end: 05 March 2017 00:00
Orbit: 744 x 795 km, 100.2° (Epoch: 22 February)

Date Brightness Start Highest point End Pass type
(mag) Time Alt. Az. Time Alt. Az. Time Alt. Az.
23 Feb10.405:22:13SSW05:22:13SSW05:09:04NNEvisible
25 Feb10.105:50:34SSW05:50:34SSW05:38:17Nvisible
26 Feb10.305:14:36S05:14:36S05:02:45NNEvisible
27 Feb10.604:38:37SSE04:38:37SSE04:27:13NEvisible
28 Feb 9.6 05:31:28 10° N 05:42:54 - SSW 05:32:02 13° N visible
01 Mar 9.9 04:56:05 10° NNE 05:06:55 - S 04:56:33 13° NNE visible
02 Mar10.604:30:54SSE04:30:54SSE04:21:03NEvisible
02 Mar 9.2 06:00:13 10° NNW 06:01:23 15° NNW 06:01:23 15° NNW visible
03 Mar 8.9 05:23:53 10° N 05:35:11 - SSW 05:25:55 24° N visible
04 Mar 9.6 04:48:49 10° NE 04:59:09 - S 04:50:28 20° NE visible
04 Mar 9.4 06:30:40 10° WNW 06:30:47 10° WNW 06:30:47 10° WNW visible
